{"data":{"norad_id":63419,"intl_designator":"2025-065W","name":"STARLINK-33709","alt_names":[],"object_type":"PAYLOAD","status":"ACTIVE","operator":null,"country":"US","launch_date":"2025-03-31","launch_site_code":"AFETR","launch_vehicle":null,"mission":null,"orbit_class":"UNKNOWN","rcs_meters":null,"size_class":null,"mass_kg":null,"dimensions":null,"purposes":["comms"],"wikipedia_slug":null,"has_3d_model":false,"image_url":null,"decayed_at":null,"tle_current":{"epoch":"2026-05-25T02:34:38.663616Z","epoch_age_seconds":73168,"freshness":"FRESH","line1":"1 63419U 25065W   26145.10739194  .00020216  00000+0  74165-3 0  9999","line2":"2 63419  43.0014  35.7491 0001376 259.7809 100.2887 15.27601156 64520","mean_motion":15.27601156,"eccentricity":0.0001376,"inclination_deg":43.0014,"raan_deg":35.7491,"arg_perigee_deg":259.7809,"mean_anomaly_deg":100.2887,"bstar":0.00074165,"rev_number":6452,"period_min":94.265443197923,"perigee_km":482.04165760579,"apogee_km":483.92983858607,"semimajor_km":6861.1227480959,"source":"CELESTRAK","updated_at":"2026-05-25T13:38:19.973031Z"}}}